Regional Weather Roundup
Issued by NWS

Home | Current Version | Previous Version | Graphics & Text | Print | Product List | Glossary On
Versions: 1 2 3 4 5 6 7 8 9 10 11 12 13 14 15 16 17 18 19 20 21 22 23 24 25 26 27 28 29 30 31 32 33 34 35 36 37 38 39 40 41 42 43 44 45 46 47 48 49 50
000
ASUS43 KBIS 300420
RWRND

NORTH DAKOTA REGIONAL WEATHER ROUNDUP
NATIONAL WEATHER SERVICE BISMARCK ND
1100 PM CDT WED OCT 29 2014

NOTE: "FAIR" INDICATES FEW OR NO CLOUDS BELOW 12,000 FEET WITH NO
SIGNIFICANT WEATHER AND/OR OBSTRUCTIONS TO VISIBILITY.


NDZ001>003-009>011-017-300500-
NORTHWEST NORTH DAKOTA

CITY           SKY/WX    TMP DP  RH WIND       PRES   REMARKS
WILLISTON      CLEAR     41  35  79 N14       30.02R
MINOT          CLEAR     38  33  82 W12       29.94R
MINOT AFB      CLEAR     33  33  99 NW10      29.95R
$$

NDZ018>021-031>035-040>046-300500-
SOUTHWEST NORTH DAKOTA

CITY           SKY/WX    TMP DP  RH WIND       PRES   REMARKS
BISMARCK       PTCLDY    42  42 100 SW3       29.95R
DICKINSON      CLEAR     38  34  85 W9        29.97R
GARRISON         N/A     36  35  96 NW3       29.94R
HETTINGER ARPT CLEAR     39  34  82 NW10      30.01R
$$

NDZ004>008-012>016-024-026-027-054-300500-
NORTHEAST NORTH DAKOTA

CITY           SKY/WX    TMP DP  RH WIND       PRES   REMARKS
GRAND FORKS    LGT RAIN  39  31  72 SE12      29.99F
GRND FRKS AFB  CLOUDY    37  32  81 SE7       29.98F
DEVILS LAKE    PTCLDY    37  28  70 E7        29.92R
$$

NDZ022-023-025-028>030-036>039-047>053-300500-
SOUTHEAST NORTH DAKOTA

CITY           SKY/WX    TMP DP  RH WIND       PRES   REMARKS
FARGO          CLOUDY    41  31  67 SE8       30.01R
JAMESTOWN      CLOUDY    42  39  89 S7        29.94F
$$




USA.gov is the U.S. government's official web portal to all federal, state and local government web resources and services.